Simultaneous Nadir Overpasses (SNOs) Predictions

Prediction of SNOs between GOES-15 and METOP-A Satellite Orbit:

Table of predicted SNOs for the next 14.0 days since TLE Epoch: 8/28/2021
Index Date Time (GOES-15) GOES-15 Lat,Lon METOP-A Lat,Lon Distance(km) Time Diff (sec)
1 08/29/2021 16:41:56 -0.05,-128.25 0.52,-130.83 293.74 80
2 08/30/2021 16:23:56 -0.02,-128.25 -0.56,-125.85 273.99 80
3 09/01/2021 04:40:16 0.06,-128.26 -0.42,-130.49 253.84 80
4 09/02/2021 04:22:15 0.04,-128.26 0.67,-125.51 313.04 80
5 09/03/2021 16:38:26 -0.08,-128.22 0.36,-130.11 215.49 80
6 09/04/2021 16:20:25 -0.06,-128.22 -0.73,-125.13 351.47 80
7 09/06/2021 04:36:46 0.10,-128.23 -0.26,-129.77 176.81 80
8 09/07/2021 04:18:45 0.08,-128.21 0.83,-124.79 389.53 80
9 09/08/2021 16:34:56 -0.12,-128.17 0.14,-129.40 140.08 80
10 09/09/2021 16:16:55 -0.09,-128.16 -0.89,-124.41 426.40 80
